This demonstration page uses our WeatherBlox Daily Observations layout. Learn more.

Left ArrowRight Arrow

Hourly Observations for July 23, 2015

Temp ( °F °C ) Dew Point ( °F °C ) Humidity (%) Winds ( mph kmh ) Pressure ( in mb ) Visibility ( mi km ) Precip ( " mm )
12:53 am 00:53 Clear 75 23.9 44 6.7 33 33 S 13 20 29.78 1008 10 16 0.00 0.00
1:53 am 01:53 Clear 71 21.7 49 9.4 46 46 SSE 9 15 29.80 1009 10 16 0.00 0.00
2:53 am 02:53 Clear 69 20.6 50 10 51 51 S 12 19 29.82 1010 10 16 0.00 0.00
3:53 am 03:53 Clear 68 20 50 10 53 53 SSW 5 7 29.84 1011 10 16 0.00 0.00
4:53 am 04:53 Clear 65 18.3 51 10.6 61 61 S 6 9 29.85 1011 10 16 0.00 0.00
5:53 am 05:53 Clear 63 17.2 51 10.6 65 65 SSE 6 9 29.87 1012 10 16 0.00 0.00
6:53 am 06:53 Sunny 64 17.8 52 11.1 65 65 SSW 7 11 29.89 1012 10 16 0.00 0.00
7:53 am 07:53 Sunny 65 18.3 52 11.1 63 63 SSW 7 11 29.91 1013 10 16 0.00 0.00
8:53 am 08:53 Sunny 68 20 52 11.1 57 57 VRB 5 7 29.92 1013 10 16 0.00 0.00
9:53 am 09:53 Sunny 71 21.7 52 11.1 51 51 VRB 5 7 29.92 1013 10 16 0.00 0.00
10:53 am 10:53 Sunny 74 23.3 51 10.6 45 45 Calm 29.93 1013 10 16 0.00 0.00
11:53 am 11:53 Sunny 78 25.6 49 9.4 36 36 SW 6 9 29.92 1013 10 16 0.00 0.00
12:53 pm 12:53 Sunny 83 28.3 45 7.2 26 26 SW 10 17 29.91 1013 10 16 0.00 0.00
1:53 pm 13:53 Sunny 85 29.4 42 5.6 22 22 S 13 20 29.91 1013 10 16 0.00 0.00
2:53 pm 14:53 Sunny 87 30.6 43 6.1 21 21 S 8 13 29.90 1013 10 16 0.00 0.00
3:53 pm 15:53 Sunny 88 31.1 40 4.4 18 18 SSW 9 15 29.88 1012 10 16 0.00 0.00
4:53 pm 16:53 Sunny 88 31.1 44 6.7 22 22 S 12 19 29.87 1012 10 16 0.00 0.00
5:53 pm 17:53 Sunny 89 31.7 43 6.1 20 20 S 6 9 29.86 1011 10 16 0.00 0.00
6:53 pm 18:53 Sunny 88 31.1 42 5.6 20 20 S 10 17 29.87 1012 10 16 0.00 0.00
7:53 pm 19:53 Sunny 86 30 41 5 20 20 SSE 8 13 29.88 1012 10 16 0.00 0.00
8:53 pm 20:53 Clear 80 26.7 41 5 25 25 SE 5 7 29.89 1012 10 16 0.00 0.00
9:53 pm 21:53 Clear 77 25 44 6.7 31 31 ESE 5 7 29.92 1013 10 16 0.00 0.00
10:53 pm 22:53 Clear 74 23.3 48 8.9 40 40 Calm 29.94 1014 10 16 0.00 0.00
11:53 pm 23:53 Clear 74 23.3 52 11.1 46 46 Calm 29.94 1014 10 16 0.00 0.00

Powered by AerisWeather